Time,TemperatureF,DewpointF,PressureIn,WindDirection,WindDirectionDegrees,WindSpeedMPH,WindSpeedGustMPH,Humidity,HourlyPrecipIn,Conditions,Clouds,dailyrainin,SoftwareType,DateUTC
2013-01-03 00:02:00,33.0,29.0,30.14,North,5,0.0,1.0,86,0.00,,,0.00,,2013-01-03 08:02:00,
2013-01-03 00:11:00,33.0,29.0,30.14,North,5,0.0,1.0,86,0.00,,,0.00,,2013-01-03 08:11:00,
2013-01-03 00:22:00,33.0,29.0,30.14,North,5,0.0,0.0,86,0.00,,,0.00,,2013-01-03 08:22:00,
2013-01-03 00:32:00,32.0,30.0,30.15,North,5,0.0,0.0,92,0.00,,,0.00,,2013-01-03 08:32:00,
2013-01-03 00:42:00,32.0,30.0,30.15,North,5,0.0,0.0,92,0.00,,,0.00,,2013-01-03 08:42:00,
2013-01-03 00:53:00,32.0,28.0,30.15,North,360,0.0,1.0,86,0.00,,,0.00,,2013-01-03 08:53:00,
2013-01-03 01:02:00,32.0,29.0,30.15,North,5,0.0,1.0,87,0.00,,,0.00,,2013-01-03 09:02:00,
2013-01-03 01:11:00,32.0,29.0,30.15,North,5,0.0,1.0,87,0.00,,,0.00,,2013-01-03 09:11:00,
2013-01-03 01:22:00,32.0,29.0,30.15,North,5,0.0,0.0,87,0.00,,,0.00,,2013-01-03 09:22:00,
2013-01-03 01:33:00,31.0,28.0,30.15,North,5,0.0,1.0,87,0.00,,,0.00,,2013-01-03 09:33:00,
2013-01-03 01:42:00,31.0,28.0,30.15,North,5,0.0,1.0,87,0.00,,,0.00,,2013-01-03 09:42:00,
2013-01-03 01:52:00,31.0,28.0,30.16,North,360,0.0,1.0,87,0.00,,,0.00,,2013-01-03 09:52:00,
2013-01-03 02:01:00,31.0,28.0,30.16,North,360,0.0,0.0,87,0.00,,,0.00,,2013-01-03 10:01:00,
2013-01-03 02:11:00,31.0,28.0,30.16,North,360,0.0,0.0,87,0.00,,,0.00,,2013-01-03 10:11:00,
2013-01-03 02:22:00,31.0,28.0,30.16,North,11,1.0,2.0,88,0.00,,,0.00,,2013-01-03 10:22:00,
2013-01-03 02:32:00,31.0,28.0,30.17,NNE,21,1.0,2.0,88,0.00,,,0.00,,2013-01-03 10:32:00,
2013-01-03 02:42:00,31.0,28.0,30.17,NNE,21,1.0,2.0,88,0.00,,,0.00,,2013-01-03 10:42:00,
2013-01-03 02:52:00,31.0,28.0,30.17,NNE,21,0.0,1.0,87,0.00,,,0.00,,2013-01-03 10:52:00,
2013-01-03 03:02:00,30.0,27.0,30.17,NNE,21,0.0,1.0,87,0.00,,,0.00,,2013-01-03 11:02:00,
2013-01-03 03:11:00,30.0,27.0,30.17,NNE,21,0.0,1.0,87,0.00,,,0.00,,2013-01-03 11:11:00,
2013-01-03 03:22:00,30.0,27.0,30.16,NNE,21,0.0,1.0,88,0.00,,,0.00,,2013-01-03 11:22:00,
2013-01-03 03:32:00,30.0,27.0,30.16,NNE,21,0.0,1.0,87,0.00,,,0.00,,2013-01-03 11:32:00,
2013-01-03 03:42:00,30.0,27.0,30.16,NNE,21,0.0,1.0,87,0.00,,,0.00,,2013-01-03 11:42:00,
2013-01-03 03:53:00,30.0,27.0,30.15,NNE,21,0.0,1.0,87,0.00,,,0.00,,2013-01-03 11:53:00,
2013-01-03 04:02:00,30.0,27.0,30.15,NNE,21,0.0,1.0,88,0.00,,,0.00,,2013-01-03 12:02:00,
2013-01-03 04:12:00,30.0,27.0,30.15,NNE,21,0.0,1.0,88,0.00,,,0.00,,2013-01-03 12:12:00,
2013-01-03 04:22:00,30.0,27.0,30.14,NNE,21,0.0,2.0,88,0.00,,,0.00,,2013-01-03 12:22:00,
2013-01-03 04:32:00,29.0,26.0,30.15,NNE,21,0.0,1.0,87,0.00,,,0.00,,2013-01-03 12:32:00,
2013-01-03 04:42:00,29.0,26.0,30.15,NNE,21,0.0,1.0,87,0.00,,,0.00,,2013-01-03 12:42:00,
2013-01-03 04:53:00,29.0,26.0,30.14,NNE,21,0.0,1.0,87,0.00,,,0.00,,2013-01-03 12:53:00,
2013-01-03 05:02:00,29.0,26.0,30.14,NNE,21,0.0,0.0,87,0.00,,,0.00,,2013-01-03 13:02:00,
2013-01-03 05:12:00,29.0,26.0,30.14,NNE,21,0.0,0.0,87,0.00,,,0.00,,2013-01-03 13:12:00,
2013-01-03 05:22:00,29.0,26.0,30.14,NNE,21,0.0,2.0,88,0.00,,,0.00,,2013-01-03 13:22:00,
2013-01-03 05:32:00,29.0,26.0,30.15,NNE,21,0.0,1.0,88,0.00,,,0.00,,2013-01-03 13:32:00,
2013-01-03 05:42:00,29.0,26.0,30.15,NNE,21,0.0,1.0,88,0.00,,,0.00,,2013-01-03 13:42:00,
2013-01-03 05:53:00,29.0,26.0,30.15,NNE,21,0.0,0.0,88,0.00,,,0.00,,2013-01-03 13:53:00,
2013-01-03 06:02:00,29.0,26.0,30.15,NNE,21,0.0,1.0,88,0.00,,,0.00,,2013-01-03 14:02:00,
2013-01-03 06:12:00,29.0,26.0,30.15,NNE,21,0.0,1.0,88,0.00,,,0.00,,2013-01-03 14:12:00,
2013-01-03 06:22:00,29.0,26.0,30.16,NNE,21,0.0,2.0,88,0.00,,,0.00,,2013-01-03 14:22:00,
2013-01-03 06:32:00,29.0,26.0,30.16,NE,34,1.0,2.0,88,0.00,,,0.00,,2013-01-03 14:32:00,
2013-01-03 06:42:00,29.0,26.0,30.16,NE,34,1.0,2.0,88,0.00,,,0.00,,2013-01-03 14:42:00,
2013-01-03 06:53:00,29.0,26.0,30.16,NE,38,0.0,1.0,88,0.00,,,0.00,,2013-01-03 14:53:00,
2013-01-03 07:02:00,29.0,26.0,30.17,NE,42,0.0,2.0,88,0.00,,,0.00,,2013-01-03 15:02:00,
2013-01-03 07:12:00,29.0,26.0,30.17,NE,42,0.0,2.0,88,0.00,,,0.00,,2013-01-03 15:12:00,
2013-01-03 07:22:00,29.0,26.0,30.18,NE,42,0.0,1.0,88,0.00,,,0.00,,2013-01-03 15:22:00,
2013-01-03 07:33:00,28.0,25.0,30.17,NE,42,0.0,2.0,88,0.00,,,0.00,,2013-01-03 15:33:00,
2013-01-03 07:42:00,28.0,25.0,30.17,NE,42,0.0,2.0,88,0.00,,,0.00,,2013-01-03 15:42:00,
2013-01-03 07:53:00,28.0,25.0,30.19,NE,42,0.0,1.0,89,0.00,,,0.00,,2013-01-03 15:53:00,
2013-01-03 08:02:00,28.0,25.0,30.19,NE,42,0.0,1.0,89,0.00,,,0.00,,2013-01-03 16:02:00,
2013-01-03 08:11:00,28.0,25.0,30.19,NE,42,0.0,1.0,89,0.00,,,0.00,,2013-01-03 16:11:00,
2013-01-03 08:22:00,29.0,26.0,30.18,NE,42,0.0,0.0,89,0.00,,,0.00,,2013-01-03 16:22:00,
2013-01-03 08:32:00,30.0,27.0,30.19,NNW,340,0.0,3.0,89,0.00,,,0.00,,2013-01-03 16:32:00,
2013-01-03 08:42:00,30.0,27.0,30.19,NNW,340,0.0,3.0,89,0.00,,,0.00,,2013-01-03 16:42:00,
2013-01-03 08:53:00,32.0,29.0,30.19,NNW,340,0.0,2.0,89,0.00,,,0.00,,2013-01-03 16:53:00,
2013-01-03 09:02:00,34.0,31.0,30.19,NNW,340,0.0,2.0,87,0.00,,,0.00,,2013-01-03 17:02:00,
2013-01-03 09:12:00,34.0,31.0,30.19,NNW,340,0.0,2.0,87,0.00,,,0.00,,2013-01-03 17:12:00,
2013-01-03 09:22:00,37.0,33.0,30.20,SW,218,1.0,3.0,85,0.01,,,0.01,,2013-01-03 17:22:00,
2013-01-03 09:32:00,38.0,33.0,30.21,SSW,205,1.0,3.0,83,0.01,,,0.01,,2013-01-03 17:32:00,
2013-01-03 09:42:00,38.0,33.0,30.21,SSW,205,1.0,3.0,83,0.01,,,0.01,,2013-01-03 17:42:00,
2013-01-03 09:53:00,41.0,35.0,30.21,SSW,202,1.0,3.0,78,0.01,,,0.01,,2013-01-03 17:53:00,
2013-01-03 10:02:00,42.0,35.0,30.22,SSW,206,1.0,2.0,75,0.01,,,0.01,,2013-01-03 18:02:00,
2013-01-03 10:12:00,42.0,35.0,30.22,SSW,206,1.0,2.0,75,0.01,,,0.01,,2013-01-03 18:12:00,
2013-01-03 10:22:00,44.0,36.0,30.22,SSW,204,0.0,3.0,72,0.00,,,0.01,,2013-01-03 18:22:00,
2013-01-03 10:32:00,45.0,35.0,30.22,East,98,0.0,5.0,69,0.00,,,0.01,,2013-01-03 18:32:00,
2013-01-03 10:42:00,45.0,35.0,30.22,East,98,0.0,5.0,69,0.00,,,0.01,,2013-01-03 18:42:00,
2013-01-03 10:53:00,48.0,36.0,30.22,SE,128,1.0,4.0,63,0.00,,,0.01,,2013-01-03 18:53:00,
2013-01-03 11:02:00,49.0,39.0,30.22,ENE,64,5.0,9.0,68,0.00,,,0.01,,2013-01-03 19:02:00,
2013-01-03 11:12:00,49.0,39.0,30.22,ENE,64,5.0,9.0,68,0.00,,,0.01,,2013-01-03 19:12:00,
2013-01-03 11:47:00,50.0,38.0,30.21,NNE,32,4.0,10.0,64,0.00,,,0.01,,2013-01-03 19:47:00,
2013-01-03 11:56:00,49.0,39.0,30.21,NNE,32,6.0,10.0,68,0.00,,,0.01,,2013-01-03 19:56:00,
2013-01-03 12:02:00,48.0,38.0,30.20,NNE,28,7.0,11.0,69,0.00,,,0.01,,2013-01-03 20:02:00,
2013-01-03 12:12:00,48.0,38.0,30.20,NNE,28,7.0,11.0,69,0.00,,,0.01,,2013-01-03 20:12:00,
2013-01-03 12:22:00,49.0,39.0,30.20,NE,42,7.0,11.0,69,0.00,,,0.01,,2013-01-03 20:22:00,
2013-01-03 12:32:00,50.0,39.0,30.20,NE,50,5.0,10.0,67,0.00,,,0.01,,2013-01-03 20:32:00,
2013-01-03 12:42:00,50.0,39.0,30.20,NE,50,5.0,10.0,67,0.00,,,0.01,,2013-01-03 20:42:00,
2013-01-03 12:53:00,50.0,39.0,30.20,NE,53,6.0,12.0,66,0.00,,,0.01,,2013-01-03 20:53:00,
2013-01-03 13:02:00,51.0,39.0,30.19,NE,40,6.0,10.0,63,0.00,,,0.01,,2013-01-03 21:02:00,
2013-01-03 13:12:00,51.0,39.0,30.19,NE,40,6.0,10.0,63,0.00,,,0.01,,2013-01-03 21:12:00,
2013-01-03 13:22:00,51.0,39.0,30.19,NE,46,6.0,10.0,63,0.00,,,0.01,,2013-01-03 21:22:00,
2013-01-03 13:33:00,52.0,39.0,30.19,NNE,30,7.0,12.0,62,0.00,,,0.01,,2013-01-03 21:33:00,
2013-01-03 13:45:00,52.0,39.0,30.19,NNE,30,7.0,12.0,62,0.00,,,0.01,,2013-01-03 21:45:00,
2013-01-03 13:53:00,52.0,40.0,30.19,NE,56,7.0,11.0,64,0.00,,,0.01,,2013-01-03 21:53:00,
2013-01-03 14:02:00,52.0,40.0,30.19,NE,37,6.0,9.0,63,0.00,,,0.01,,2013-01-03 22:02:00,
2013-01-03 14:12:00,52.0,40.0,30.19,NE,37,6.0,9.0,63,0.00,,,0.01,,2013-01-03 22:12:00,
2013-01-03 14:22:00,52.0,40.0,30.19,NE,34,5.0,11.0,63,0.00,,,0.01,,2013-01-03 22:22:00,
2013-01-03 14:32:00,53.0,40.0,30.18,NNE,29,5.0,10.0,62,0.00,,,0.01,,2013-01-03 22:32:00,
2013-01-03 14:42:00,53.0,40.0,30.18,NNE,29,5.0,10.0,62,0.00,,,0.01,,2013-01-03 22:42:00,
2013-01-03 14:52:00,52.0,40.0,30.19,NE,46,7.0,10.0,63,0.00,,,0.01,,2013-01-03 22:52:00,
2013-01-03 15:02:00,52.0,41.0,30.19,NE,38,4.0,10.0,65,0.00,,,0.01,,2013-01-03 23:02:00,
2013-01-03 15:12:00,52.0,41.0,30.19,NE,38,4.0,10.0,65,0.00,,,0.01,,2013-01-03 23:12:00,
2013-01-03 15:22:00,52.0,41.0,30.19,NNE,26,4.0,11.0,66,0.00,,,0.01,,2013-01-03 23:22:00,
2013-01-03 15:32:00,52.0,41.0,30.19,NE,36,4.0,8.0,66,0.00,,,0.01,,2013-01-03 23:32:00,
2013-01-03 15:42:00,52.0,41.0,30.19,NE,36,4.0,8.0,66,0.00,,,0.01,,2013-01-03 23:42:00,
2013-01-03 15:53:00,51.0,40.0,30.18,NNE,24,5.0,10.0,66,0.00,,,0.01,,2013-01-03 23:53:00,
2013-01-03 16:02:00,51.0,40.0,30.18,NNE,17,4.0,6.0,66,0.00,,,0.01,,2013-01-04 00:02:00,
2013-01-03 16:12:00,51.0,40.0,30.18,NNE,17,4.0,6.0,66,0.00,,,0.01,,2013-01-04 00:12:00,
2013-01-03 16:22:00,51.0,40.0,30.18,NNE,28,4.0,8.0,67,0.00,,,0.01,,2013-01-04 00:22:00,
2013-01-03 16:32:00,51.0,41.0,30.19,NNE,24,4.0,7.0,68,0.00,,,0.01,,2013-01-04 00:32:00,
2013-01-03 16:42:00,51.0,41.0,30.19,NNE,24,4.0,7.0,68,0.00,,,0.01,,2013-01-04 00:42:00,
2013-01-03 16:52:00,50.0,40.0,30.18,NE,34,5.0,7.0,68,0.00,,,0.01,,2013-01-04 00:52:00,
2013-01-03 17:02:00,49.0,39.0,30.19,NE,40,4.0,7.0,69,0.00,,,0.01,,2013-01-04 01:02:00,
2013-01-03 17:12:00,49.0,39.0,30.19,NE,40,4.0,7.0,69,0.00,,,0.01,,2013-01-04 01:12:00,
2013-01-03 17:22:00,49.0,40.0,30.19,North,10,1.0,6.0,71,0.00,,,0.01,,2013-01-04 01:22:00,
2013-01-03 17:32:00,48.0,39.0,30.19,NE,35,3.0,6.0,72,0.00,,,0.01,,2013-01-04 01:32:00,
2013-01-03 17:42:00,48.0,39.0,30.19,NE,35,3.0,6.0,72,0.00,,,0.01,,2013-01-04 01:42:00,
2013-01-03 17:52:00,47.0,39.0,30.20,ENE,76,3.0,7.0,73,0.00,,,0.01,,2013-01-04 01:52:00,
2013-01-03 18:01:00,47.0,39.0,30.20,NE,44,1.0,3.0,74,0.00,,,0.01,,2013-01-04 02:01:00,
2013-01-03 18:12:00,47.0,39.0,30.20,NE,44,1.0,3.0,74,0.00,,,0.01,,2013-01-04 02:12:00,
2013-01-03 18:22:00,46.0,39.0,30.21,NE,51,2.0,4.0,75,0.00,,,0.01,,2013-01-04 02:22:00,
2013-01-03 18:32:00,46.0,39.0,30.21,NE,36,0.0,2.0,76,0.00,,,0.01,,2013-01-04 02:32:00,
2013-01-03 18:42:00,46.0,39.0,30.21,NE,36,0.0,2.0,76,0.00,,,0.01,,2013-01-04 02:42:00,
2013-01-03 18:53:00,45.0,38.0,30.22,ENE,63,0.0,2.0,77,0.00,,,0.01,,2013-01-04 02:53:00,
2013-01-03 19:02:00,44.0,38.0,30.22,ENE,63,0.0,1.0,79,0.00,,,0.01,,2013-01-04 03:02:00,
2013-01-03 19:11:00,44.0,38.0,30.22,ENE,63,0.0,1.0,79,0.00,,,0.01,,2013-01-04 03:11:00,
2013-01-03 19:22:00,44.0,38.0,30.22,ENE,63,0.0,1.0,80,0.00,,,0.01,,2013-01-04 03:22:00,
2013-01-03 19:32:00,43.0,38.0,30.22,ENE,63,0.0,1.0,81,0.00,,,0.01,,2013-01-04 03:32:00,
2013-01-03 19:42:00,43.0,38.0,30.22,ENE,63,0.0,1.0,81,0.00,,,0.01,,2013-01-04 03:42:00,
2013-01-03 19:52:00,42.0,37.0,30.22,ENE,63,0.0,1.0,82,0.00,,,0.01,,2013-01-04 03:52:00,
2013-01-03 20:02:00,42.0,37.0,30.23,ENE,63,0.0,2.0,83,0.00,,,0.01,,2013-01-04 04:02:00,
2013-01-03 20:11:00,42.0,37.0,30.23,ENE,63,0.0,2.0,83,0.00,,,0.01,,2013-01-04 04:11:00,
2013-01-03 20:22:00,41.0,36.0,30.23,ENE,63,0.0,2.0,83,0.00,,,0.01,,2013-01-04 04:22:00,
2013-01-03 20:32:00,41.0,37.0,30.23,ENE,63,0.0,1.0,84,0.00,,,0.01,,2013-01-04 04:32:00,
2013-01-03 20:42:00,41.0,37.0,30.23,ENE,63,0.0,1.0,84,0.00,,,0.01,,2013-01-04 04:42:00,
2013-01-03 20:52:00,40.0,36.0,30.24,ENE,63,0.0,0.0,84,0.00,,,0.01,,2013-01-04 04:52:00,
2013-01-03 21:03:00,40.0,36.0,30.23,ENE,63,0.0,0.0,85,0.00,,,0.01,,2013-01-04 05:03:00,
2013-01-03 21:12:00,40.0,36.0,30.23,ENE,63,0.0,0.0,85,0.00,,,0.01,,2013-01-04 05:12:00,
2013-01-03 21:22:00,40.0,36.0,30.24,ENE,63,0.0,1.0,85,0.00,,,0.01,,2013-01-04 05:22:00,
2013-01-03 21:32:00,39.0,35.0,30.24,ENE,63,0.0,0.0,85,0.00,,,0.01,,2013-01-04 05:32:00,
2013-01-03 21:42:00,39.0,35.0,30.24,ENE,63,0.0,0.0,85,0.00,,,0.01,,2013-01-04 05:42:00,
2013-01-03 21:52:00,38.0,34.0,30.24,ENE,63,0.0,0.0,85,0.00,,,0.01,,2013-01-04 05:52:00,
2013-01-03 22:02:00,38.0,34.0,30.24,ENE,63,0.0,0.0,86,0.00,,,0.01,,2013-01-04 06:02:00,
2013-01-03 22:11:00,38.0,34.0,30.24,ENE,63,0.0,0.0,86,0.00,,,0.01,,2013-01-04 06:11:00,
2013-01-03 22:22:00,37.0,33.0,30.24,ENE,63,0.0,1.0,86,0.00,,,0.01,,2013-01-04 06:22:00,
2013-01-03 22:32:00,37.0,33.0,30.25,ENE,63,0.0,0.0,86,0.00,,,0.01,,2013-01-04 06:32:00,
2013-01-03 22:42:00,37.0,33.0,30.25,ENE,63,0.0,0.0,86,0.00,,,0.01,,2013-01-04 06:42:00,
2013-01-03 22:52:00,37.0,34.0,30.25,ENE,63,0.0,0.0,87,0.00,,,0.01,,2013-01-04 06:52:00,
2013-01-03 23:01:00,37.0,34.0,30.25,ENE,63,0.0,1.0,87,0.00,,,0.01,,2013-01-04 07:01:00,
2013-01-03 23:11:00,37.0,34.0,30.25,ENE,63,0.0,1.0,87,0.00,,,0.01,,2013-01-04 07:11:00,
2013-01-03 23:22:00,36.0,33.0,30.25,ENE,63,0.0,1.0,87,0.00,,,0.01,,2013-01-04 07:22:00,
2013-01-03 23:32:00,36.0,33.0,30.24,ENE,63,0.0,0.0,87,0.00,,,0.01,,2013-01-04 07:32:00,
2013-01-03 23:42:00,36.0,33.0,30.24,ENE,63,0.0,0.0,87,0.00,,,0.01,,2013-01-04 07:42:00,
2013-01-03 23:52:00,36.0,33.0,30.24,ENE,63,0.0,0.0,87,0.00,,,0.01,,2013-01-04 07:52:00,